Weather Service Report


199 
ASUS45 KREV 272010
RWRNV 
NEVADA REGIONAL WEATHER ROUNDUP
NATIONAL WEATHER SERVICE RENO NV
100 PM PDT MON APR 27 2015

NOTE: "FAIR" INDICATES FEW OR NO CLOUDS BELOW 12,000 FEET WITH NO
SIGNIFICANT WEATHER AND/OR OBSTRUCTIONS TO VISIBILITY.

NVZ001-003-004-272100-
WESTERN NEVADA
  
CITY           SKY/WX    TMP DP  RH WIND       PRES   REMARKS
RENO           MOSUNNY   65  25  22 VRB5      30.23F                  
CARSON CITY    FAIR      63  25  23 NE14G20   30.24F                  
MINDEN         FAIR      63  25  23 CALM      30.24                   
PYRAMID LAKE     N/A     61 N/A N/A N5          N/A                   
FALLON         MOSUNNY   64  27  24 N10       30.24F                  
LOVELOCK       SUNNY     62  27  26 CALM      30.24F                  
HAWTHORNE      SUNNY     64  23  20 N5        30.24F                  
$$

NVZ002-CAZ072-073-272100-
NORTHERN AND CENTRAL SIERRA
  
CITY           SKY/WX    TMP DP  RH WIND       PRES   REMARKS
S. LAKE TAHOE  SUNNY     59  25  27 E10G28    30.23F                  
TRUCKEE        MOSUNNY   61  30  31 S15       30.23F                  
SQUAW VLY 8000   N/A     46  28  49 SE6         N/A                   
SUSANVILLE     SUNNY     64  30  27 E12       30.24F                  
BLUE CANYON    SUNNY     65  27  23 NE9G20    30.18F                  
MAMMOTH LAKES  FAIR      63  19  19 W6        30.27F                  
BRIDGEPORT     FAIR      59  26  28 VRB6      30.23F                  
$$

NVZ030-031-036-272100-
NORTHERN NEVADA
  
CITY           SKY/WX    TMP DP  RH WIND       PRES   REMARKS
ELKO           SUNNY     58  14  17 E5        30.26F                  
WINNEMUCCA     SUNNY     60  25  26 N14G23    30.27F                  
WENDOVER       SUNNY     59  19  21 E7        30.26F                  
$$

NVZ035-037-272100-
CENTRAL NEVADA
  
CITY           SKY/WX    TMP DP  RH WIND       PRES   REMARKS
ELY            SUNNY     55  19  24 N10G18    30.24F                  
EUREKA           N/A     54  14  20 VRB3      30.25F                  
$$

NVZ013-014-272100-
SOUTH CENTRAL NEVADA
  
CITY           SKY/WX    TMP DP  RH WIND       PRES   REMARKS
TONOPAH        SUNNY     65  11  12 N10       30.20F                  
$$

NVZ017-020-022-272100-
SOUTHERN NEVADA
  
CITY           SKY/WX    TMP DP  RH WIND       PRES   REMARKS
LAS VEGAS      SUNNY     74  21  13 VRB6      30.02F                  
N. LAS VEGAS   SUNNY     73  17  12 VRB3G23   30.05F                  
NELLIS AFB     SUNNY     75  25  15 NE15      30.04F                  
HENDERSON      SUNNY     73  25  16 N10G21    30.08F                  
MERCURY        SUNNY     72  17  12 NE8       30.10F                  
$$

Return to Home page


Western Regional Climate Center, wrcc@dri.edu